Weather History for CYYG - August, 2013

Change the Weather History Date:

Friday, August 30, 2013

  Actual Average Record
Temperature  
Mean Temperature 56 °F -  
Max Temperature 60 °F 64 °F 77 °F (2007)
Min Temperature 53 °F 48 °F 42 °F (2014)
Degree Days  
Heating Degree Days 8    
Growing Degree Days 6 (Base 50)    
Moisture  
Dew Point 55 °F    
Average Humidity 89    
Maximum Humidity 100    
Minimum Humidity 77    
Precipitation  
Precipitation 0.16 in 0.12 in - ()
Sea Level Pressure  
Sea Level Pressure 29.74 in    
Wind  
Wind Speed 16 mph ()    
Max Wind Speed 23 mph    
Max Gust Speed 34 mph    
Visibility 10.8 miles    
Events Rain    
Averages and records for this station are not official NWS values.
T = Trace of Precipitation, MM = Missing Value Source: Averaged Metar Reports

Daily Weather History Graph

Daily Weather History Graph

Search for Another Location

Airport or City:

Trip Planner

Search our weather history database for the weather conditions in past years. The results will help you decide how hot, cold, wet, or windy it might be!

Date:

Astronomy

Aug. 30, 2013 Rise Set
Actual Time 6:30 AM ADT 7:54 PM ADT
Civil Twilight 5:59 AM ADT 8:25 PM ADT
Nautical Twilight 5:21 AM ADT 9:03 PM ADT
Astronomical Twilight 4:40 AM ADT 9:43 PM ADT
Moon 12:55 AM ADT (8/30) 4:17 PM ADT (8/30)
Length of Visible Light 14h 26m
Length of Day
13h 24m
Waning Crescent, 29% of the Moon is Illuminated
Aug 30
Waning Crescent
Sep 5
New
Sep 12
First Quarter
Sep 19
Full
Sep 27
Last Quarter

Hourly Weather History & Observations

Time (ADT) Temp. Dew Point Humidity Pressure Visibility Wind Dir Wind Speed Gust Speed Precip Events Conditions
12:00 AM 60.8 °F 57.2 °F 88% 29.92 in 15.0 mi NNE 19.6 mph 27.6 mph N/A   Overcast
12:20 AM 60.8 °F 57.2 °F 88% 29.91 in 12.0 mi NNE 18.4 mph - N/A Rain Light Rain Showers
1:00 AM 59.0 °F 59.0 °F 100% 29.88 in 12.0 mi NNE 18.4 mph - N/A Rain Light Rain Showers
1:50 AM 59.0 °F 59.0 °F 100% 29.85 in 8.0 mi NNE 19.6 mph 26.5 mph N/A Rain Light Rain Showers
2:00 AM 59.0 °F 59.0 °F 100% 29.85 in 8.0 mi NNE 21.9 mph 31.1 mph N/A Rain Light Rain Showers
3:00 AM 59.0 °F 59.0 °F 100% 29.82 in 8.0 mi NNE 21.9 mph 27.6 mph N/A Rain Light Rain Showers
4:00 AM 59.0 °F 57.2 °F 94% 29.78 in 5.0 mi NNE 21.9 mph 28.8 mph N/A Rain Light Rain Showers
4:33 AM 59.0 °F 57.2 °F 94% 29.78 in 4.0 mi NNE 23.0 mph 32.2 mph N/A Rain Light Rain
5:00 AM 59.0 °F 57.2 °F 94% 29.76 in 8.0 mi NNE 23.0 mph 28.8 mph N/A Rain Light Rain
6:00 AM 59.0 °F 57.2 °F 94% 29.75 in 8.0 mi NNE 19.6 mph 34.5 mph N/A Rain Light Rain
6:20 AM 59.0 °F 57.2 °F 94% 29.75 in 10.0 mi North 18.4 mph 28.8 mph N/A   Light Drizzle
6:54 AM 57.2 °F 55.4 °F 94% 29.76 in 8.0 mi North 18.4 mph 28.8 mph N/A Rain Light Rain
7:00 AM 57.2 °F 55.4 °F 94% 29.76 in 8.0 mi North - - N/A Rain Light Rain
8:00 AM 57.2 °F 55.4 °F 94% 29.75 in 5.0 mi North 12.7 mph 20.7 mph N/A   Light Drizzle
9:00 AM 57 °F 56 °F 93% 29.75 in 2 mi North 17.3 mph - - Rain Light Rain
9:00 AM 57.2 °F 55.4 °F 94% 29.75 in 2.0 mi North 13.8 mph 27.6 mph N/A Rain Light Rain
10:00 AM 57.2 °F 55.4 °F 94% 29.74 in 5.0 mi North 18.4 mph 29.9 mph N/A Rain Light Rain
10:29 AM 57.2 °F 55.4 °F 94% 29.73 in 3.0 mi NNW 15.0 mph 28.8 mph N/A Rain Light Rain
10:44 AM 57.2 °F 55.4 °F 94% 29.73 in 8.0 mi NNW 18.4 mph 31.1 mph N/A   Overcast
11:00 AM 59.0 °F 55.4 °F 88% 29.72 in 10.0 mi NNW 17.3 mph 31.1 mph N/A   Overcast
12:00 PM 59.0 °F 55.4 °F 88% 29.72 in 15.0 mi NNW 16.1 mph 32.2 mph N/A   Overcast
1:00 PM 59.0 °F 55.4 °F 88% 29.71 in 15.0 mi North 17.3 mph 31.1 mph N/A   Overcast
2:00 PM 60.8 °F 55.4 °F 82% 29.70 in 15.0 mi North 21.9 mph 31.1 mph N/A   Overcast
3:00 PM 60 °F 55 °F 78% 29.68 in 15 mi NNW 16.1 mph - -   Partly Cloudy
3:00 PM 60.8 °F 55.4 °F 82% 29.68 in 15.0 mi NNW 13.8 mph 27.6 mph N/A   Overcast
3:29 PM 59.0 °F 55.4 °F 88% 29.68 in 10.0 mi NNW 13.8 mph 24.2 mph N/A Rain Light Rain
4:00 PM 59.0 °F 55.4 °F 88% 29.68 in 10.0 mi NNW 16.1 mph 24.2 mph N/A Rain Light Rain
4:28 PM 59.0 °F 53.6 °F 82% 29.69 in 15.0 mi NW 17.3 mph 25.3 mph N/A   Light Drizzle
4:47 PM 59.0 °F 53.6 °F 82% 29.70 in 15.0 mi NNW 11.5 mph 23.0 mph N/A   Mostly Cloudy
5:00 PM 59.0 °F 53.6 °F 82% 29.69 in 15.0 mi NNW 13.8 mph 25.3 mph N/A   Mostly Cloudy
6:00 PM 59.0 °F 51.8 °F 77% 29.70 in 15.0 mi NW 16.1 mph 28.8 mph N/A   Mostly Cloudy
6:38 PM 59.0 °F 51.8 °F 77% 29.70 in 15.0 mi NW 11.5 mph 18.4 mph N/A   Partly Cloudy
7:00 PM 57.2 °F 51.8 °F 82% 29.70 in 15.0 mi NW 6.9 mph - N/A   Partly Cloudy
8:00 PM 55.4 °F 50.0 °F 82% 29.70 in 15.0 mi NW 6.9 mph - N/A   Scattered Clouds
9:00 PM 54 °F 50 °F 83% 29.71 in 15 mi NW 5.8 mph - -   Partly Cloudy
9:00 PM 53.6 °F 50.0 °F 88% 29.71 in 15.0 mi NW 5.8 mph - N/A   Partly Cloudy
10:00 PM 55.4 °F 50.0 °F 82% 29.71 in 15.0 mi NW 5.8 mph - N/A   Scattered Clouds
11:00 PM 57.2 °F 51.8 °F 82% 29.70 in 15.0 mi West 4.6 mph - N/A   Mostly Cloudy